Location: Nashville
(36.1660°N, 86.7840°W)
Time: 12:29:31
(UTC-05:00)

ITAMSAT 1 - Visible Passes

Search period start: 17 May 2022 00:00
Search period end: 27 May 2022 00:00
Orbit: 783 x 797 km, 98.9° (Epoch: 17 May)

Date Brightness Start Highest point End Pass type
(mag) Time Alt. Az. Time Alt. Az. Time Alt. Az.
18 May 10.5 21:19:09 10° WSW 21:20:48 11° W 21:22:27 10° WNW visible
19 May 9.9 20:46:54 10° SSW 20:50:59 23° W 20:55:06 10° NW visible
20 May 8.8 20:16:20 10° S 20:21:18 46° W 20:26:17 10° NNW visible
22 May 10.2 20:58:22 10° SW 21:01:55 18° W 21:05:28 10° NW visible
23 May 9.2 20:27:26 10° SSW 20:32:11 36° W 20:36:57 10° NNW visible
25 May 10.3 21:10:06 10° SW 21:12:50 14° W 21:15:35 10° WNW visible
26 May 9.6 20:38:38 10° SSW 20:43:04 28° W 20:47:30 10° NW visible
